Weather Roundup
Issued by NWS Corpus Christi, TX

Current Version | Previous Version | Text Only | Print | Product List | Glossary On
Versions: 1 2 3 4 5 6 7 8 9 10 11 12 13 14 15 16 17 18 19 20 21 22 23 24 25 26 27 28 29 30 31 32 33 34 35 36 37 38 39 40 41 42 43 44 45 46 47 48 49 50
000
ASUS44 KCRP 292210
HRRCRP

SOUTH TEXAS REGIONAL WEATHER ROUNDUP
NATIONAL WEATHER SERVICE CORPUS CHRISTI TX
500 PM CDT THU SEP 29 2016


TXZ229>244-292300-
...CORPUS CHRISTI AREA OBSERVATIONS...

CITY           SKY/WX    TMP DP  RH WIND       PRES   REMARKS
CORPUS CHRISTI MOSUNNY   91  59  33 NE10      30.06F HX  90
NAS CORPUS CHR PTSUNNY   89  61  38 NE10      30.06F
ROCKPORT       SUNNY     88  61  40 E10       30.06F
KINGSVILLE NAS MOSUNNY   92  62  36 N10       30.06F HX  92
ALICE          SUNNY     92  59  33 NE8       30.07F HX  91
FALFURRIAS     MOSUNNY   93  58  31 NE10      30.06S HX  92
$$

...VICTORIA AREA OBSERVATIONS...

CITY           SKY/WX    TMP DP  RH WIND       PRES   REMARKS
VICTORIA       SUNNY     89  60  37 NE10      30.09S
BEEVILLE       FAIR      91  60  35 NE7       30.08F HX  90
PLEASANTON     SUNNY     89  57  33 NE8       30.13S
SAN ANTONIO    MOSUNNY   88  56  33 N12       30.15S
$$

...LAREDO AREA OBSERVATIONS...

CITY           SKY/WX    TMP DP  RH WIND       PRES   REMARKS
LAREDO         SUNNY     91  62  37 N10       30.10S HX  91
COTULLA        SUNNY     93  47  20 E10       30.11F
DEL RIO        SUNNY     89  57  33 N3        30.15S
MCALLEN        MOSUNNY   94  66  39 NE9       30.05F HX  97
HEBBRONVILLE   SUNNY     90  56  32 NE9       30.11S
$$

...OTHER TEXAS OBSERVATIONS...

CITY           SKY/WX    TMP DP  RH WIND       PRES   REMARKS
BROWNSVILLE    PTSUNNY   87  74  64 NE15      30.05S HX  95
HOUSTON        MOSUNNY   83  56  39 NE12      30.10F
COL. STATION   SUNNY     81  52  36 N13       30.15S
AUSTIN         MOSUNNY   84  51  31 NE16      30.15F
WACO           SUNNY     81  48  31 N12       30.19S
FORT WORTH     MOSUNNY   78  48  34 N9        30.21S
WICHITA FALLS  MOSUNNY   74  49  41 N10       30.26F
LUBBOCK        PTSUNNY   77  46  33 E6        30.33F
EL PASO        MOSUNNY   86  40  19 S8G17     30.22F
$$

...MARINE OBSERVATIONS...

STATION/POSITION TIME  SKY/WX   TEMP    WIND        PRES    VSBY  WAVE   SWELL
                                AIR SEA DIR/SP/G                  HT/PER HT/PER
                 (UTC)          (F)     (DEG/KT/KT) (MB)    (MI)  (FT/S) (FT/S)
PORT ARANSAS     2200            84 85   70/  9/ 10 1018.5F
BUOY 90 E PORT A 2150            83 86   20/  8/ 10 1018.0F         2/ 3
BUOY 45 SE BAFFI 2150            84 85   30/ 12/ 16 1017.4F         2/ 4
BUOY 200 E PT IS 2150            85 88  330/  4/  4 1015.6F         1/ 5   2/ 5
BUOY 15 E GALVES 2150            82 85   10/  8/ 12 1018.6F         1/ 2
$$




USA.gov is the U.S. government's official web portal to all federal, state and local government web resources and services.